Location: Mount Cross
(36.6390°N, 79.4878°W)
Time: 01:49:02
(UTC+00:00)

Vanguard 2 Rocket - Pass Details

Date: 24 March 2023
Orbit: 554 x 3314 km, 32.9° (Epoch: 08 June)

Event Time Altitude Azimuth Distance (km) Brightness Sun altitude
Rises 00:13:46 0° 229° (SW) 3,402 10.5 -9.1°
Reaches altitude 10° 00:15:56 10° 221° (SW) 2,693 9.8 -9.5°
Maximum altitude 00:22:08 44° 151° (SSE) 1,796 8.1 -10.8°
Enters shadow 00:31:22 13° 87° (E) 4,146 9.6 -12.6°
